Dewar Lakes, Nunavut

1:23 PM EST on January 16, 2018 (GMT -0500)
Dewar Lakes

Weather History for CWUW - May, 2013

Change the Weather History Date:

Wednesday, May 22, 2013

  Actual Average Record
Temperature  
Mean Temperature 14 °F -  
Max Temperature 19 °F 32 °F 37 °F (2005)
Min Temperature 10 °F 22 °F 3 °F (2000)
Degree Days  
Heating Degree Days 50    
Moisture  
Dew Point -    
Average Humidity    
Maximum Humidity    
Minimum Humidity    
Precipitation  
Precipitation 0.00 in 0.03 in - ()
Sea Level Pressure  
Sea Level Pressure 30.37 in    
Wind  
Wind Speed 14 mph ()    
Max Wind Speed 25 mph    
Max Gust Speed 29 mph    
Visibility 8.5 miles    
Events      
Averages and records for this station are not official NWS values.
T = Trace of Precipitation, MM = Missing Value Source: Averaged Metar Reports

Daily Weather History Graph

Daily Weather History Graph

Search for Another Location

Airport or City:

Trip Planner

Search our weather history database for the weather conditions in past years. The results will help you decide how hot, cold, wet, or windy it might be!

Date:

Astronomy

May. 22, 2013 Rise Set
Actual Time 1:04 AM EDT 12:08 AM EDT
Civil Twilight Sun does not rise Sun does not rise
Nautical Twilight Sun does not rise Sun does not rise
Astronomical Twilight Sun does not rise Sun does not rise
Moon 7:08 PM EDT (5/22) 2:05 AM EDT (5/22)
Length of Visible Light 24h 00m
Length of Day
23h 04m
Waxing Gibbous, 91% of the Moon is Illuminated
May 22
Waxing Gibbous
May 25
Full
May 31
Last Quarter
Jun 8
New
Jun 16
First Quarter

Hourly Weather History & Observations

Time (EDT) Temp. Windchill Dew Point Humidity Pressure Visibility Wind Dir Wind Speed Gust Speed Precip Events Conditions
12:00 AM 10.4 °F -8.6 °F - N/A% 30.45 in 8.0 mi East 20.7 mph - N/A   Clear
1:00 AM 10.4 °F -10.3 °F - N/A% 30.44 in 3.5 mi East 25.3 mph - N/A   Clear
1:04 AM 10.4 °F -10.3 °F - N/A% 30.26 in 3.0 mi East 25.3 mph - N/A   Clear
1:15 AM 10.4 °F -8.2 °F - N/A% 30.26 in 5.0 mi East 19.6 mph 28.8 mph N/A   Clear
2:00 AM 10 °F - - % 30.45 in 9 mi East 19.6 mph - -  
2:00 AM 10.4 °F -8.6 °F - N/A% 30.45 in 9.0 mi ENE 20.7 mph - N/A   Clear
3:00 AM 10.4 °F -6.0 °F - N/A% 30.45 in 9.0 mi East 15.0 mph - N/A   Clear
4:00 AM 10.4 °F -4.8 °F - N/A% 30.45 in 9.0 mi East 12.7 mph - N/A   Partly Cloudy
5:00 AM 10 °F - - % 30.44 in 9 mi East 17.3 mph - -  
5:00 AM 10.4 °F -8.2 °F - N/A% 30.44 in 9.0 mi East 19.6 mph - N/A   Partly Cloudy
6:00 AM 10.4 °F -6.6 °F - N/A% 30.44 in 9.0 mi East 16.1 mph - N/A   Partly Cloudy
7:00 AM 12.2 °F -4.3 °F - N/A% 30.45 in 9.0 mi ENE 16.1 mph - N/A   Clear
8:00 AM 12 °F - - % 30.45 in 9 mi ENE 10.4 mph - -  
8:00 AM 12.2 °F -1.0 °F - N/A% 30.45 in 9.0 mi ENE 10.4 mph - N/A   Partly Cloudy
9:00 AM 14.0 °F 0.5 °F - N/A% 30.44 in 9.0 mi ENE 11.5 mph - N/A   Mostly Cloudy
10:00 AM 14.0 °F 0.5 °F - N/A% 30.43 in 9.0 mi East 11.5 mph - N/A   Partly Cloudy
11:00 AM 17 °F - - % 30.42 in 9 mi ENE 6.9 mph - -  
11:00 AM 15.8 °F 6.1 °F - N/A% 30.42 in 9.0 mi ENE 6.9 mph - N/A   Partly Cloudy
12:00 PM 17.6 °F 7.3 °F - N/A% 30.40 in 9.0 mi ENE 8.1 mph - N/A   Partly Cloudy
1:00 PM 17.6 °F 5.7 °F - N/A% 30.39 in 9.0 mi ENE 10.4 mph - N/A   Partly Cloudy
2:00 PM 18 °F - - % 30.37 in 9 mi ENE 9.2 mph - -  
2:00 PM 19.4 °F 8.6 °F - N/A% 30.37 in 9.0 mi ENE 9.2 mph - N/A   Partly Cloudy
3:00 PM - - - N/A% 30.35 in 9.0 mi ENE 9.2 mph - N/A   Clear
4:00 PM 19.4 °F 12.8 °F - N/A% 30.35 in 9.0 mi ENE 4.6 mph - N/A   Partly Cloudy
5:00 PM 19 °F - - % 30.33 in 9 mi East 5.8 mph - -  
5:00 PM 19.4 °F 10.4 °F - N/A% 30.33 in 9.0 mi ESE 6.9 mph - N/A   Partly Cloudy
6:00 PM 17.6 °F 8.2 °F - N/A% 30.32 in 9.0 mi ESE 6.9 mph - N/A   Clear
7:00 PM 17.6 °F 5.7 °F - N/A% 30.30 in 9.0 mi ENE 10.4 mph - N/A   Clear
8:00 PM 15 °F - - % 30.29 in 9 mi East 8.1 mph - -  
8:00 PM 15.8 °F 5.1 °F - N/A% 30.29 in 9.0 mi East 8.1 mph - N/A   Partly Cloudy
9:00 PM 15.8 °F 5.1 °F - N/A% 30.28 in 9.0 mi East 8.1 mph - N/A   Clear
10:00 PM 14.0 °F 0.5 °F - N/A% 30.27 in 9.0 mi East 11.5 mph - N/A   Clear
11:00 PM 14 °F - - % 30.25 in 9 mi East 10.4 mph - -  
11:00 PM 14.0 °F 1.2 °F - N/A% 30.25 in 9.0 mi East 10.4 mph - N/A   Partly Cloudy